Location: Drocourt
(49.0571°N, 1.7669°E)
Time: 07:18:34
(UTC+00:00)

SR - Pass Details

Date: 25 April 2024
Orbit: 579 x 859 km, 66.7° (Epoch: 26 May)

Event Time Altitude Azimuth Distance (km) Brightness Sun altitude
Exits shadow 00:38:35 69° 95° (E) 814 ? -26.8°
Drops below altitude 10° 00:43:20 10° 39° (NE) 2,212 ? -26.6°
Sets 00:45:36 0° 38° (NE) 3,090 ? -26.5°
